This is the latest recevied weather packets stored in our database for station/object DM4WH-13. If no packets are shown the sender has not sent any weather packets the latest 10 day(s).
| Time | Temp. | Humidity | Pressure | Rain* | Wind** | Luminosity | Snow |
|---|---|---|---|---|---|---|---|
| 1777618823 | 12.78° C | 50% | 1031.6 hPa | 0 mm | 0 m/s | - | - |
| 1777618511 | 12.78° C | 51% | 1031.7 hPa | 0 mm | 0.45 m/s, 318° | - | - |
| 1777618223 | 12.78° C | 51% | 1031.6 hPa | 0 mm | 0.45 m/s, 228° | - | - |
| 1777617911 | 13.89° C | 50% | 1031.6 hPa | 0 mm | 0.45 m/s, 190° | - | - |
| 1777617623 | 12.78° C | 49% | 1031.6 hPa | 0 mm | 0.45 m/s, 176° | - | - |
| 1777617311 | 12.78° C | 53% | 1031.6 hPa | 0 mm | 0.45 m/s, 176° | - | - |
| 1777617023 | 13.89° C | 52% | 1031.6 hPa | 0 mm | 0 m/s | - | - |
| 1777616436 | 12.78° C | 51% | 1031.5 hPa | 0 mm | 0 m/s | - | - |
| 1777616124 | 12.22° C | 52% | 1031.4 hPa | 0 mm | 0 m/s | - | - |
| 1777615811 | 12.22° C | 57% | 1031.5 hPa | 0 mm | 0.45 m/s, 164° | - | - |
| 1777615523 | 12.22° C | 58% | 1031.5 hPa | 0 mm | 0 m/s | - | - |
| 1777615211 | 12.22° C | 56% | 1031.5 hPa | 0 mm | 0 m/s | - | - |
| 1777614923 | 11.11° C | 57% | 1031.5 hPa | 0 mm | 0 m/s | - | - |
| 1777614611 | 11.11° C | 58% | 1031.5 hPa | 0 mm | 0 m/s | - | - |
| 1777614323 | 10° C | 60% | 1031.5 hPa | 0 mm | 0.45 m/s, 174° | - | - |
| 1777614011 | 10° C | 62% | 1031.5 hPa | 0 mm | 0 m/s | - | - |
| 1777613723 | 8.89° C | 64% | 1031.5 hPa | 0 mm | 0.45 m/s, 182° | - | - |
| 1777613411 | 8.89° C | 65% | 1031.5 hPa | 0 mm | 0 m/s | - | - |
| 1777613124 | 8.89° C | 65% | 1031.4 hPa | 0 mm | 0.45 m/s, 163° | - | - |
| 1777612811 | 8.89° C | 66% | 1031.4 hPa | 0 mm | 0.45 m/s, 174° | - | - |
| 1777612523 | 7.78° C | 64% | 1031.4 hPa | 0 mm | 0 m/s | - | - |
| 1777612211 | 7.78° C | 67% | 1031.5 hPa | 0 mm | 0.45 m/s, 174° | - | - |
| 1777611923 | 7.78° C | 65% | 1031.4 hPa | 0 mm | 0.45 m/s, 174° | - | - |
| 1777611611 | 7.22° C | 66% | 1031.4 hPa | 0 mm | 0 m/s | - | - |
| 1777611324 | 6.11° C | 68% | 1031.4 hPa | 0 mm | 0 m/s | - | - |
* Rain latest hour (hover to see other rain measurements)
** Current wind speed in m/s (hover to see current wind gust speed)